Year,Month,Day,Hour,Minute,Value (Times are PST for temperature in C)
2014,07,14,00,00,28.10
2014,07,14,00,01,28.10
2014,07,14,00,02,28.00
2014,07,14,00,03,28.00
2014,07,14,00,04,27.90
2014,07,14,00,05,27.90
2014,07,14,00,06,27.80
2014,07,14,00,07,27.70
2014,07,14,00,08,27.70
2014,07,14,00,09,27.70
2014,07,14,00,10,27.60
2014,07,14,00,11,27.60
2014,07,14,00,12,27.50
2014,07,14,00,13,27.50
2014,07,14,00,14,27.40
2014,07,14,00,15,27.40
2014,07,14,00,16,27.40
2014,07,14,00,17,27.40
2014,07,14,00,18,27.30
2014,07,14,00,19,27.30
2014,07,14,00,20,27.30
2014,07,14,00,21,27.30
2014,07,14,00,22,27.30
2014,07,14,00,23,27.30
2014,07,14,00,24,27.20
2014,07,14,00,25,27.20
2014,07,14,00,26,27.20
2014,07,14,00,27,27.20
2014,07,14,00,28,27.20
2014,07,14,00,29,27.20
2014,07,14,00,30,27.20
2014,07,14,00,31,27.20
2014,07,14,00,32,27.20
2014,07,14,00,33,27.20
2014,07,14,00,34,27.20
2014,07,14,00,35,27.20
2014,07,14,00,36,27.20
2014,07,14,00,37,27.20
2014,07,14,00,38,27.20
2014,07,14,00,39,27.20
2014,07,14,00,40,27.20
2014,07,14,00,41,27.20
2014,07,14,00,42,27.20
2014,07,14,00,43,27.20
2014,07,14,00,44,27.20
2014,07,14,00,45,27.10
2014,07,14,00,46,27.10
2014,07,14,00,47,27.10
2014,07,14,00,48,27.00
2014,07,14,00,49,26.90
2014,07,14,00,50,26.90
2014,07,14,00,51,26.80
2014,07,14,00,52,26.70
2014,07,14,00,53,26.60
2014,07,14,00,54,26.60
2014,07,14,00,55,26.50
2014,07,14,00,56,26.50
2014,07,14,00,57,26.40
2014,07,14,00,58,26.40
2014,07,14,00,59,26.40
2014,07,14,01,00,26.30
2014,07,14,01,01,26.30
2014,07,14,01,02,26.20
2014,07,14,01,03,26.20
2014,07,14,01,04,26.10
2014,07,14,01,05,26.10
2014,07,14,01,06,26.00
2014,07,14,01,07,26.00
2014,07,14,01,08,25.90
2014,07,14,01,09,25.90
2014,07,14,01,10,25.90
2014,07,14,01,11,25.90
2014,07,14,01,12,25.90
2014,07,14,01,13,25.90
2014,07,14,01,14,25.90
2014,07,14,01,15,25.90
2014,07,14,01,16,25.90
2014,07,14,01,17,25.90
2014,07,14,01,18,25.90
2014,07,14,01,19,25.80
2014,07,14,01,20,25.80
2014,07,14,01,21,25.80
2014,07,14,01,22,25.80
2014,07,14,01,23,25.80
2014,07,14,01,24,25.90
2014,07,14,01,25,25.90
2014,07,14,01,26,25.90
2014,07,14,01,27,25.90
2014,07,14,01,28,25.90
2014,07,14,01,29,25.90
2014,07,14,01,30,25.80
2014,07,14,01,31,25.80
2014,07,14,01,32,25.80
2014,07,14,01,33,25.80
2014,07,14,01,34,25.70
2014,07,14,01,35,25.70
2014,07,14,01,36,25.70
2014,07,14,01,37,25.70
2014,07,14,01,38,25.70
2014,07,14,01,39,25.60
2014,07,14,01,40,25.60
2014,07,14,01,41,25.60
2014,07,14,01,42,25.60
2014,07,14,01,43,25.60
2014,07,14,01,44,25.60
2014,07,14,01,45,25.60
2014,07,14,01,46,25.60
2014,07,14,01,47,25.60
2014,07,14,01,48,25.60
2014,07,14,01,49,25.60
2014,07,14,01,50,25.60
2014,07,14,01,51,25.60
2014,07,14,01,52,25.60
2014,07,14,01,53,25.60
2014,07,14,01,54,25.50
2014,07,14,01,55,25.50
2014,07,14,01,56,25.50
2014,07,14,01,57,25.50
2014,07,14,01,58,25.50
2014,07,14,01,59,25.50
2014,07,14,02,00,25.50
2014,07,14,02,01,25.50
2014,07,14,02,02,25.50
2014,07,14,02,03,25.50
2014,07,14,02,04,25.50
2014,07,14,02,05,25.50
2014,07,14,02,06,25.50
2014,07,14,02,07,25.50
2014,07,14,02,08,25.50
2014,07,14,02,09,25.50
2014,07,14,02,10,25.50
2014,07,14,02,11,25.50
2014,07,14,02,12,25.60
2014,07,14,02,13,25.60
2014,07,14,02,14,25.60
2014,07,14,02,15,25.60
2014,07,14,02,16,25.60
2014,07,14,02,17,25.60
2014,07,14,02,18,25.60
2014,07,14,02,19,25.60
2014,07,14,02,20,25.60
2014,07,14,02,21,25.60
2014,07,14,02,22,25.60
2014,07,14,02,23,25.60
2014,07,14,02,24,25.60
2014,07,14,02,25,25.60
2014,07,14,02,26,25.60
2014,07,14,02,27,25.60
2014,07,14,02,28,25.60
2014,07,14,02,29,25.60
2014,07,14,02,30,25.60
2014,07,14,02,31,25.60
2014,07,14,02,32,25.60
2014,07,14,02,33,25.70
2014,07,14,02,34,25.70
2014,07,14,02,35,25.70
2014,07,14,02,36,25.60
2014,07,14,02,37,25.60
2014,07,14,02,38,25.60
2014,07,14,02,39,25.60
2014,07,14,02,40,25.60
2014,07,14,02,41,25.50
2014,07,14,02,42,25.50
2014,07,14,02,43,25.50
2014,07,14,02,44,25.50
2014,07,14,02,45,25.40
2014,07,14,02,46,25.40
2014,07,14,02,47,25.40
2014,07,14,02,48,25.40
2014,07,14,02,49,25.40
2014,07,14,02,50,25.40
2014,07,14,02,51,25.40
2014,07,14,02,52,25.40
2014,07,14,02,53,25.40
2014,07,14,02,54,25.40
2014,07,14,02,55,25.40
2014,07,14,02,56,25.40
2014,07,14,02,57,25.40
2014,07,14,02,58,25.40
2014,07,14,02,59,25.30
2014,07,14,03,00,25.30
2014,07,14,03,01,25.30
2014,07,14,03,02,25.30
2014,07,14,03,03,25.30
2014,07,14,03,04,25.30
2014,07,14,03,05,25.30
2014,07,14,03,06,25.30
2014,07,14,03,07,25.30
2014,07,14,03,08,25.20
2014,07,14,03,09,25.20
2014,07,14,03,10,25.20
2014,07,14,03,11,25.20
2014,07,14,03,12,25.10
2014,07,14,03,13,25.10
2014,07,14,03,14,25.00
2014,07,14,03,15,25.00
2014,07,14,03,16,24.90
2014,07,14,03,17,24.90
2014,07,14,03,18,24.90
2014,07,14,03,19,24.80
2014,07,14,03,20,24.80
2014,07,14,03,21,24.80
2014,07,14,03,22,24.80
2014,07,14,03,23,24.70
2014,07,14,03,24,24.70
2014,07,14,03,25,24.70
2014,07,14,03,26,24.60
2014,07,14,03,27,24.60
2014,07,14,03,28,24.60
2014,07,14,03,29,24.60
2014,07,14,03,30,24.50
2014,07,14,03,31,24.50
2014,07,14,03,32,24.40
2014,07,14,03,33,24.40
2014,07,14,03,34,24.40
2014,07,14,03,35,24.30
2014,07,14,03,36,24.30
2014,07,14,03,37,24.20
2014,07,14,03,38,24.20
2014,07,14,03,39,24.20
2014,07,14,03,40,24.10
2014,07,14,03,41,24.10
2014,07,14,03,42,24.00
2014,07,14,03,43,23.90
2014,07,14,03,44,23.90
2014,07,14,03,45,23.90
2014,07,14,03,46,23.80
2014,07,14,03,47,23.80
2014,07,14,03,48,23.80
2014,07,14,03,49,23.80
2014,07,14,03,50,23.80
2014,07,14,03,51,23.80
2014,07,14,03,52,23.80
2014,07,14,03,53,23.80
2014,07,14,03,54,23.80
2014,07,14,03,55,23.80
2014,07,14,03,56,23.80
2014,07,14,03,57,23.80
2014,07,14,03,58,23.80
2014,07,14,03,59,23.80
2014,07,14,04,00,23.80
2014,07,14,04,01,23.80
2014,07,14,04,02,23.80
2014,07,14,04,03,23.80
2014,07,14,04,04,23.70
2014,07,14,04,05,23.70
2014,07,14,04,06,23.70
2014,07,14,04,07,23.70
2014,07,14,04,08,23.70
2014,07,14,04,09,23.70
2014,07,14,04,10,23.60
2014,07,14,04,11,23.60
2014,07,14,04,12,23.60
2014,07,14,04,13,23.60
2014,07,14,04,14,23.60
2014,07,14,04,15,23.60
2014,07,14,04,16,23.60
2014,07,14,04,17,23.60
2014,07,14,04,18,23.60
2014,07,14,04,19,23.60
2014,07,14,04,20,23.60
2014,07,14,04,21,23.50
2014,07,14,04,22,23.50
2014,07,14,04,23,23.50
2014,07,14,04,24,23.60
2014,07,14,04,25,23.50
2014,07,14,04,26,23.50
2014,07,14,04,27,23.50
2014,07,14,04,28,23.50
2014,07,14,04,29,23.50
2014,07,14,04,30,23.50
2014,07,14,04,31,23.50
2014,07,14,04,32,23.50
2014,07,14,04,33,23.50
2014,07,14,04,34,23.50
2014,07,14,04,35,23.50
2014,07,14,04,36,23.50
2014,07,14,04,37,23.40
2014,07,14,04,38,23.40
2014,07,14,04,39,23.40
2014,07,14,04,40,23.40
2014,07,14,04,41,23.40
2014,07,14,04,42,23.40
2014,07,14,04,43,23.50
2014,07,14,04,44,23.50
2014,07,14,04,45,23.50
2014,07,14,04,46,23.40
2014,07,14,04,47,23.40
2014,07,14,04,48,23.40
2014,07,14,04,49,23.40
2014,07,14,04,50,23.40
2014,07,14,04,51,23.40
2014,07,14,04,52,23.40
2014,07,14,04,53,23.40
2014,07,14,04,54,23.40
2014,07,14,04,55,23.40
2014,07,14,04,56,23.40
2014,07,14,04,57,23.40
2014,07,14,04,58,23.40
2014,07,14,04,59,23.30
2014,07,14,05,00,23.30
2014,07,14,05,01,23.30
2014,07,14,05,02,23.30
2014,07,14,05,03,23.30
2014,07,14,05,04,23.30
2014,07,14,05,05,23.30
2014,07,14,05,06,23.30
2014,07,14,05,07,23.30
2014,07,14,05,08,23.30
2014,07,14,05,09,23.20
2014,07,14,05,10,23.20
2014,07,14,05,11,23.20
2014,07,14,05,12,23.20
2014,07,14,05,13,23.20
2014,07,14,05,14,23.20
2014,07,14,05,15,23.20
2014,07,14,05,16,23.20
2014,07,14,05,17,23.20
2014,07,14,05,18,23.20
2014,07,14,05,19,23.10
2014,07,14,05,20,23.20
2014,07,14,05,21,23.10
2014,07,14,05,22,23.10
2014,07,14,05,23,23.10
2014,07,14,05,24,23.10
2014,07,14,05,25,23.10
2014,07,14,05,26,23.10
2014,07,14,05,27,23.10
2014,07,14,05,28,23.10
2014,07,14,05,29,23.10
2014,07,14,05,30,23.10
2014,07,14,05,31,23.10
2014,07,14,05,32,23.10
2014,07,14,05,33,23.00
2014,07,14,05,34,23.00
2014,07,14,05,35,23.00
2014,07,14,05,36,22.90
2014,07,14,05,37,22.90
2014,07,14,05,38,22.90
2014,07,14,05,39,22.80
2014,07,14,05,40,22.80
2014,07,14,05,41,22.70
2014,07,14,05,42,22.60
2014,07,14,05,43,22.50
2014,07,14,05,44,22.40
2014,07,14,05,45,22.30
2014,07,14,05,46,22.30
2014,07,14,05,47,22.20
2014,07,14,05,48,22.10
2014,07,14,05,49,22.00
2014,07,14,05,50,22.00
2014,07,14,05,51,21.90
2014,07,14,05,52,21.90
2014,07,14,05,53,21.80
2014,07,14,05,54,21.80
2014,07,14,05,55,21.80
2014,07,14,05,56,21.80
2014,07,14,05,57,21.80
2014,07,14,05,58,21.70
2014,07,14,05,59,21.70
2014,07,14,06,00,21.70
2014,07,14,06,01,21.60
2014,07,14,06,02,21.60
2014,07,14,06,03,21.60
2014,07,14,06,04,21.50
2014,07,14,06,05,21.50
2014,07,14,06,06,21.40
2014,07,14,06,07,21.40
2014,07,14,06,08,21.40
2014,07,14,06,09,21.30
2014,07,14,06,10,21.20
2014,07,14,06,11,21.10
2014,07,14,06,12,21.00
2014,07,14,06,13,21.00
2014,07,14,06,14,20.90
2014,07,14,06,15,20.80
2014,07,14,06,16,20.80
2014,07,14,06,17,20.80
2014,07,14,06,18,20.70
2014,07,14,06,19,20.60
2014,07,14,06,20,20.60
2014,07,14,06,21,20.60
2014,07,14,06,22,20.60
2014,07,14,06,23,20.60
2014,07,14,06,24,20.70
2014,07,14,06,25,20.70
2014,07,14,06,26,20.70
2014,07,14,06,27,20.80
2014,07,14,06,28,20.80
2014,07,14,06,29,20.80
2014,07,14,06,30,20.90
2014,07,14,06,31,20.90
2014,07,14,06,32,21.00
2014,07,14,06,33,21.00
2014,07,14,06,34,21.10
2014,07,14,06,35,21.20
2014,07,14,06,36,21.20
2014,07,14,06,37,21.30
2014,07,14,06,38,21.40
2014,07,14,06,39,21.50
2014,07,14,06,40,21.60
2014,07,14,06,41,21.60
2014,07,14,06,42,21.70
2014,07,14,06,43,21.70
2014,07,14,06,44,21.70
2014,07,14,06,45,21.80
2014,07,14,06,46,21.80
2014,07,14,06,47,21.80
2014,07,14,06,48,21.90
2014,07,14,06,49,21.90
2014,07,14,06,50,21.90
2014,07,14,06,51,22.00
2014,07,14,06,52,22.10
2014,07,14,06,53,22.10
2014,07,14,06,54,22.10
2014,07,14,06,55,22.10
2014,07,14,06,56,22.10
2014,07,14,06,57,22.10
2014,07,14,06,58,22.10
2014,07,14,06,59,22.10
2014,07,14,07,00,22.10
2014,07,14,07,01,22.10
2014,07,14,07,02,22.10
2014,07,14,07,03,22.10
2014,07,14,07,04,22.10
2014,07,14,07,05,22.10
2014,07,14,07,06,22.10
2014,07,14,07,07,22.10
2014,07,14,07,08,22.10
2014,07,14,07,09,22.10
2014,07,14,07,10,22.10
2014,07,14,07,11,22.10
2014,07,14,07,12,22.10
2014,07,14,07,13,22.10
2014,07,14,07,14,22.10
2014,07,14,07,15,22.10
2014,07,14,07,16,22.10
2014,07,14,07,17,22.10
2014,07,14,07,18,22.10
2014,07,14,07,19,22.10
2014,07,14,07,20,22.10
2014,07,14,07,21,22.10
2014,07,14,07,22,22.20
2014,07,14,07,23,22.20
2014,07,14,07,24,22.20
2014,07,14,07,25,22.20
2014,07,14,07,26,22.30
2014,07,14,07,27,22.30
2014,07,14,07,28,22.30
2014,07,14,07,29,22.30
2014,07,14,07,30,22.30
2014,07,14,07,31,22.30
2014,07,14,07,32,22.30
2014,07,14,07,33,22.30
2014,07,14,07,34,22.40
2014,07,14,07,35,22.40
2014,07,14,07,36,22.40
2014,07,14,07,37,22.40
2014,07,14,07,38,22.50
2014,07,14,07,39,22.50
2014,07,14,07,40,22.60
2014,07,14,07,41,22.60
2014,07,14,07,42,22.60
2014,07,14,07,43,22.60
2014,07,14,07,44,22.50
2014,07,14,07,45,22.30
2014,07,14,07,46,22.10
2014,07,14,07,47,21.90
2014,07,14,07,48,21.80
2014,07,14,07,49,21.70
2014,07,14,07,50,21.70
2014,07,14,07,51,21.60
2014,07,14,07,52,21.60
2014,07,14,07,53,21.60
2014,07,14,07,54,21.60
2014,07,14,07,55,21.60
2014,07,14,07,56,21.70
2014,07,14,07,57,21.70
2014,07,14,07,58,21.70
2014,07,14,07,59,21.80
2014,07,14,08,00,21.80
2014,07,14,08,01,21.90
2014,07,14,08,02,21.90
2014,07,14,08,03,22.00
2014,07,14,08,04,22.10
2014,07,14,08,05,22.20
2014,07,14,08,06,22.30
2014,07,14,08,07,22.30
2014,07,14,08,08,22.40
2014,07,14,08,09,22.40
2014,07,14,08,10,22.40
2014,07,14,08,11,22.40
2014,07,14,08,12,22.40
2014,07,14,08,13,22.40
2014,07,14,08,14,22.40
2014,07,14,08,15,22.50
2014,07,14,08,16,22.60
2014,07,14,08,17,22.60
2014,07,14,08,18,22.70
2014,07,14,08,19,22.70
2014,07,14,08,20,22.80
2014,07,14,08,21,22.80
2014,07,14,08,22,22.80
2014,07,14,08,23,22.90
2014,07,14,08,24,22.90
2014,07,14,08,25,22.90
2014,07,14,08,26,22.90
2014,07,14,08,27,22.80
2014,07,14,08,28,22.80
2014,07,14,08,29,22.70
2014,07,14,08,30,22.70
2014,07,14,08,31,22.50
2014,07,14,08,32,22.40
2014,07,14,08,33,22.30
2014,07,14,08,34,22.20
2014,07,14,08,35,22.10
2014,07,14,08,36,22.00
2014,07,14,08,37,22.00
2014,07,14,08,38,21.90
2014,07,14,08,39,21.90
2014,07,14,08,40,21.80
2014,07,14,08,41,21.70
2014,07,14,08,42,21.70
2014,07,14,08,43,21.50
2014,07,14,08,44,21.40
2014,07,14,08,45,21.40
2014,07,14,08,46,21.30
2014,07,14,08,47,21.20
2014,07,14,08,48,21.10
2014,07,14,08,49,21.10
2014,07,14,08,50,21.10
2014,07,14,08,51,21.10
2014,07,14,08,52,21.10
2014,07,14,08,53,21.10
2014,07,14,08,54,21.10
2014,07,14,08,55,21.20
2014,07,14,08,56,21.20
2014,07,14,08,57,21.30
2014,07,14,08,58,21.30
2014,07,14,08,59,21.30
2014,07,14,09,00,21.40
2014,07,14,09,01,21.50
2014,07,14,09,02,21.50
2014,07,14,09,03,21.60
2014,07,14,09,04,21.70
2014,07,14,09,05,21.70
2014,07,14,09,06,21.80
2014,07,14,09,07,21.90
2014,07,14,09,08,22.10
2014,07,14,09,09,22.20
2014,07,14,09,10,22.40
2014,07,14,09,11,22.50
2014,07,14,09,12,22.70
2014,07,14,09,13,22.80
2014,07,14,09,14,22.90
2014,07,14,09,15,23.00
2014,07,14,09,16,23.10
2014,07,14,09,17,23.10
2014,07,14,09,18,23.10
2014,07,14,09,19,23.10
2014,07,14,09,20,23.20
2014,07,14,09,21,23.20
2014,07,14,09,22,23.30
2014,07,14,09,23,23.30
2014,07,14,09,24,23.30
2014,07,14,09,25,23.40
2014,07,14,09,26,23.40
2014,07,14,09,27,23.50
2014,07,14,09,28,23.50
2014,07,14,09,29,23.50
2014,07,14,09,30,23.60
2014,07,14,09,31,23.60
2014,07,14,09,32,23.60
2014,07,14,09,33,23.70
2014,07,14,09,34,23.60
2014,07,14,09,35,23.50
2014,07,14,09,36,23.50
2014,07,14,09,37,23.40
2014,07,14,09,38,23.40
2014,07,14,09,39,23.40
2014,07,14,09,40,23.40
2014,07,14,09,41,23.40
2014,07,14,09,42,23.40
2014,07,14,09,43,23.40
2014,07,14,09,44,23.30
2014,07,14,09,45,23.30
2014,07,14,09,46,23.20
2014,07,14,09,47,23.10
2014,07,14,09,48,23.00
2014,07,14,09,49,22.90
2014,07,14,09,50,22.90
2014,07,14,09,51,22.80
2014,07,14,09,52,22.80
2014,07,14,09,53,22.70
2014,07,14,09,54,22.60
2014,07,14,09,55,22.60
2014,07,14,09,56,22.60
2014,07,14,09,57,22.60
2014,07,14,09,58,22.60
2014,07,14,09,59,22.70
2014,07,14,10,00,22.70
2014,07,14,10,01,22.70
2014,07,14,10,02,22.80
2014,07,14,10,03,22.80
2014,07,14,10,04,22.80
2014,07,14,10,05,22.80
2014,07,14,10,06,22.80
2014,07,14,10,07,22.80
2014,07,14,10,08,22.80
2014,07,14,10,09,22.80
2014,07,14,10,10,22.80
2014,07,14,10,11,22.80
2014,07,14,10,12,22.80
2014,07,14,10,13,22.80
2014,07,14,10,14,22.80
2014,07,14,10,15,22.80
2014,07,14,10,16,22.90
2014,07,14,10,17,22.90
2014,07,14,10,18,22.90
2014,07,14,10,19,23.00
2014,07,14,10,20,23.00
2014,07,14,10,21,23.10
2014,07,14,10,22,23.20
2014,07,14,10,23,23.30
2014,07,14,10,24,23.30
2014,07,14,10,25,23.30
2014,07,14,10,26,23.20
2014,07,14,10,27,23.20
2014,07,14,10,28,23.20
2014,07,14,10,29,23.20
2014,07,14,10,30,23.20
2014,07,14,10,31,23.30
2014,07,14,10,32,23.40
2014,07,14,10,33,23.40
2014,07,14,10,34,23.50
2014,07,14,10,35,23.60
2014,07,14,10,36,23.50
2014,07,14,10,37,23.50
2014,07,14,10,38,23.40
2014,07,14,10,39,23.30
2014,07,14,10,40,23.20
2014,07,14,10,41,23.20
2014,07,14,10,42,23.20
2014,07,14,10,43,23.30
2014,07,14,10,44,23.30
2014,07,14,10,45,23.30
2014,07,14,10,46,23.30
2014,07,14,10,47,23.30
2014,07,14,10,48,23.40
2014,07,14,10,49,23.40
2014,07,14,10,50,23.50
2014,07,14,10,51,23.60
2014,07,14,10,52,23.60
2014,07,14,10,53,23.70
2014,07,14,10,54,23.70
2014,07,14,10,55,23.70
2014,07,14,10,56,23.80
2014,07,14,10,57,23.90
2014,07,14,10,58,23.90
2014,07,14,10,59,24.00
2014,07,14,11,00,23.90
2014,07,14,11,01,23.90
2014,07,14,11,02,23.70
2014,07,14,11,03,23.60
2014,07,14,11,04,23.40
2014,07,14,11,05,23.30
2014,07,14,11,06,23.30
2014,07,14,11,07,23.20
2014,07,14,11,08,23.20
2014,07,14,11,09,23.20
2014,07,14,11,10,23.20
2014,07,14,11,11,23.10
2014,07,14,11,12,23.20
2014,07,14,11,13,23.20
2014,07,14,11,14,23.30
2014,07,14,11,15,23.40
2014,07,14,11,16,23.50
2014,07,14,11,17,23.50
2014,07,14,11,18,23.60
2014,07,14,11,19,23.70
2014,07,14,11,20,23.80
2014,07,14,11,21,23.90
2014,07,14,11,22,24.00
2014,07,14,11,23,24.10
2014,07,14,11,24,24.10
2014,07,14,11,25,24.20
2014,07,14,11,26,24.30
2014,07,14,11,27,24.40
2014,07,14,11,28,24.40
2014,07,14,11,29,24.50
2014,07,14,11,30,24.60
2014,07,14,11,31,24.70
2014,07,14,11,32,24.80
2014,07,14,11,33,24.90
2014,07,14,11,34,25.00
2014,07,14,11,35,25.10
2014,07,14,11,36,25.20
2014,07,14,11,37,25.30
2014,07,14,11,38,25.30
2014,07,14,11,39,25.40
2014,07,14,11,40,25.60
2014,07,14,11,41,25.70
2014,07,14,11,42,25.80
2014,07,14,11,43,25.80
2014,07,14,11,44,25.90
2014,07,14,11,45,26.00
2014,07,14,11,46,26.10
2014,07,14,11,47,26.20
2014,07,14,11,48,26.20
2014,07,14,11,49,26.30
2014,07,14,11,50,26.40
2014,07,14,11,51,26.60
2014,07,14,11,52,26.70
2014,07,14,11,53,26.80
2014,07,14,11,54,26.90
2014,07,14,11,55,27.00
2014,07,14,11,56,27.10
2014,07,14,11,57,27.10
2014,07,14,11,58,27.10
2014,07,14,11,59,27.20
2014,07,14,12,00,27.30
2014,07,14,12,01,27.30
2014,07,14,12,02,27.30
2014,07,14,12,03,27.40
2014,07,14,12,04,27.30
2014,07,14,12,05,27.20
2014,07,14,12,06,27.00
2014,07,14,12,07,26.90
2014,07,14,12,08,26.80
2014,07,14,12,09,26.70
2014,07,14,12,10,26.80
2014,07,14,12,11,26.80
2014,07,14,12,12,26.90
2014,07,14,12,13,27.00
2014,07,14,12,14,27.20
2014,07,14,12,15,27.40
2014,07,14,12,16,27.50
2014,07,14,12,17,27.50
2014,07,14,12,18,27.60
2014,07,14,12,19,27.60
2014,07,14,12,20,27.60
2014,07,14,12,21,27.50
2014,07,14,12,22,27.40
2014,07,14,12,23,27.40
2014,07,14,12,24,27.30
2014,07,14,12,25,27.20
2014,07,14,12,26,27.10
2014,07,14,12,27,27.00
2014,07,14,12,28,26.90
2014,07,14,12,29,26.90
2014,07,14,12,30,26.80
2014,07,14,12,31,26.80
2014,07,14,12,32,26.80
2014,07,14,12,33,26.70
2014,07,14,12,34,26.70
2014,07,14,12,35,26.70
2014,07,14,12,36,26.80
2014,07,14,12,37,26.80
2014,07,14,12,38,26.90
2014,07,14,12,39,26.90
2014,07,14,12,40,26.90
2014,07,14,12,41,27.00
2014,07,14,12,42,27.10
2014,07,14,12,43,27.10
2014,07,14,12,44,27.10
2014,07,14,12,45,27.10
2014,07,14,12,46,27.10
2014,07,14,12,47,27.00
2014,07,14,12,48,27.00
2014,07,14,12,49,27.10
2014,07,14,12,50,27.10
2014,07,14,12,51,27.10
2014,07,14,12,52,27.20
2014,07,14,12,53,27.30
2014,07,14,12,54,27.30
2014,07,14,12,55,27.30
2014,07,14,12,56,27.40
2014,07,14,12,57,27.50
2014,07,14,12,58,27.50
2014,07,14,12,59,27.60
2014,07,14,13,00,27.60
2014,07,14,13,01,27.70
2014,07,14,13,02,27.70
2014,07,14,13,03,27.70
2014,07,14,13,04,27.70
2014,07,14,13,05,27.70
2014,07,14,13,06,27.70
2014,07,14,13,07,27.80
2014,07,14,13,08,27.80
2014,07,14,13,09,27.80
2014,07,14,13,10,27.80
2014,07,14,13,11,27.80
2014,07,14,13,12,27.80
2014,07,14,13,13,27.80
2014,07,14,13,14,27.80
2014,07,14,13,15,27.80
2014,07,14,13,16,27.80
2014,07,14,13,17,27.80
2014,07,14,13,18,27.80
2014,07,14,13,19,27.80
2014,07,14,13,20,27.80
2014,07,14,13,21,27.90
2014,07,14,13,22,27.90
2014,07,14,13,23,28.00
2014,07,14,13,24,28.10
2014,07,14,13,25,28.20
2014,07,14,13,26,28.30
2014,07,14,13,27,28.30
2014,07,14,13,28,28.40
2014,07,14,13,29,28.40
2014,07,14,13,30,28.40
2014,07,14,13,31,28.40
2014,07,14,13,32,28.30
2014,07,14,13,33,28.30
2014,07,14,13,34,28.30
2014,07,14,13,35,28.30
2014,07,14,13,36,28.30
2014,07,14,13,37,28.30
2014,07,14,13,38,28.40
2014,07,14,13,39,28.40
2014,07,14,13,40,28.50
2014,07,14,13,41,28.60
2014,07,14,13,42,28.70
2014,07,14,13,43,28.70
2014,07,14,13,44,28.80
2014,07,14,13,45,28.80
2014,07,14,13,46,28.90
2014,07,14,13,47,28.90
2014,07,14,13,48,28.90
2014,07,14,13,49,28.90
2014,07,14,13,50,28.90
2014,07,14,13,51,28.80
2014,07,14,13,52,28.80
2014,07,14,13,53,28.80
2014,07,14,13,54,28.80
2014,07,14,13,55,28.70
2014,07,14,13,56,28.80
2014,07,14,13,57,28.80
2014,07,14,13,58,28.80
2014,07,14,13,59,28.80
2014,07,14,14,00,28.90
2014,07,14,14,01,29.00
2014,07,14,14,02,29.00
2014,07,14,14,03,29.10
2014,07,14,14,04,29.20
2014,07,14,14,05,29.20
2014,07,14,14,06,29.20
2014,07,14,14,07,29.30
2014,07,14,14,08,29.30
2014,07,14,14,09,29.30
2014,07,14,14,10,29.30
2014,07,14,14,11,29.30
2014,07,14,14,12,29.30
2014,07,14,14,13,29.30
2014,07,14,14,14,29.30
2014,07,14,14,15,29.30
2014,07,14,14,16,29.30
2014,07,14,14,17,29.20
2014,07,14,14,18,29.20
2014,07,14,14,19,29.20
2014,07,14,14,20,29.20
2014,07,14,14,21,29.20
2014,07,14,14,22,29.20
2014,07,14,14,23,29.30
2014,07,14,14,24,29.30
2014,07,14,14,25,29.40
2014,07,14,14,26,29.40
2014,07,14,14,27,29.40
2014,07,14,14,28,29.40
2014,07,14,14,29,29.40
2014,07,14,14,30,29.40
2014,07,14,14,31,29.40
2014,07,14,14,32,29.50
2014,07,14,14,33,29.50
2014,07,14,14,34,29.60
2014,07,14,14,35,29.60
2014,07,14,14,36,29.70
2014,07,14,14,37,29.80
2014,07,14,14,38,29.90
2014,07,14,14,39,29.90
2014,07,14,14,40,29.90
2014,07,14,14,41,30.00
2014,07,14,14,42,30.00
2014,07,14,14,43,30.00
2014,07,14,14,44,30.00
2014,07,14,14,45,30.10
2014,07,14,14,46,30.10
2014,07,14,14,47,30.10
2014,07,14,14,48,30.10
2014,07,14,14,49,30.20
2014,07,14,14,50,30.30
2014,07,14,14,51,30.30
2014,07,14,14,52,30.30
2014,07,14,14,53,30.40
2014,07,14,14,54,30.40
2014,07,14,14,55,30.40
2014,07,14,14,56,30.40
2014,07,14,14,57,30.40
2014,07,14,14,58,30.50
2014,07,14,14,59,30.50
2014,07,14,15,00,30.50
2014,07,14,15,01,30.50
2014,07,14,15,02,30.40
2014,07,14,15,03,30.40
2014,07,14,15,04,30.40
2014,07,14,15,05,30.40
2014,07,14,15,06,30.40
2014,07,14,15,07,30.40
2014,07,14,15,08,30.40
2014,07,14,15,09,30.40
2014,07,14,15,10,30.40
2014,07,14,15,11,30.40
2014,07,14,15,12,30.40
2014,07,14,15,13,30.50
2014,07,14,15,14,30.60
2014,07,14,15,15,30.60
2014,07,14,15,16,30.60
2014,07,14,15,17,30.70
2014,07,14,15,18,30.70
2014,07,14,15,19,30.70
2014,07,14,15,20,30.70
2014,07,14,15,21,30.70
2014,07,14,15,22,30.70
2014,07,14,15,23,30.70
2014,07,14,15,24,30.70
2014,07,14,15,25,30.70
2014,07,14,15,26,30.80
2014,07,14,15,27,30.80
2014,07,14,15,28,30.90
2014,07,14,15,29,31.00
2014,07,14,15,30,31.00
2014,07,14,15,31,31.10
2014,07,14,15,32,31.10
2014,07,14,15,33,31.10
2014,07,14,15,34,31.10
2014,07,14,15,35,31.20
2014,07,14,15,36,31.20
2014,07,14,15,37,31.10
2014,07,14,15,38,31.20
2014,07,14,15,39,31.20
2014,07,14,15,40,31.10
2014,07,14,15,41,31.00
2014,07,14,15,42,31.00
2014,07,14,15,43,31.00
2014,07,14,15,44,30.90
2014,07,14,15,45,30.80
2014,07,14,15,46,30.60
2014,07,14,15,47,30.40
2014,07,14,15,48,30.30
2014,07,14,15,49,30.10
2014,07,14,15,50,29.80
2014,07,14,15,51,29.40
2014,07,14,15,52,28.90
2014,07,14,15,53,28.50
2014,07,14,15,54,28.20
2014,07,14,15,55,27.90
2014,07,14,15,56,27.70
2014,07,14,15,57,27.60
2014,07,14,15,58,27.60
2014,07,14,15,59,27.50
2014,07,14,16,00,27.40
2014,07,14,16,01,27.30
2014,07,14,16,02,27.00
2014,07,14,16,03,26.90
2014,07,14,16,04,26.80
2014,07,14,16,05,26.60
2014,07,14,16,06,26.40
2014,07,14,16,07,26.20
2014,07,14,16,08,26.00
2014,07,14,16,09,25.80
2014,07,14,16,10,25.70
2014,07,14,16,11,25.60
2014,07,14,16,12,25.50
2014,07,14,16,13,25.40
2014,07,14,16,14,25.40
2014,07,14,16,15,25.40
2014,07,14,16,16,25.40
2014,07,14,16,17,25.40
2014,07,14,16,18,25.20
2014,07,14,16,19,25.20
2014,07,14,16,20,25.20
2014,07,14,16,21,25.20
2014,07,14,16,22,25.20
2014,07,14,16,23,25.20
2014,07,14,16,24,25.20
2014,07,14,16,25,25.30
2014,07,14,16,26,25.30
2014,07,14,16,27,25.40
2014,07,14,16,28,25.40
2014,07,14,16,29,25.40
2014,07,14,16,30,25.40
2014,07,14,16,31,25.50
2014,07,14,16,32,25.50
2014,07,14,16,33,25.50
2014,07,14,16,34,25.60
2014,07,14,16,35,25.70
2014,07,14,16,36,25.80
2014,07,14,16,37,25.90
2014,07,14,16,38,25.90
2014,07,14,16,39,25.90
2014,07,14,16,40,26.00
2014,07,14,16,41,26.10
2014,07,14,16,42,26.30
2014,07,14,16,43,26.40
2014,07,14,16,44,26.50
2014,07,14,16,45,26.70
2014,07,14,16,46,26.80
2014,07,14,16,47,26.90
2014,07,14,16,48,27.10
2014,07,14,16,49,27.20
2014,07,14,16,50,27.30
2014,07,14,16,51,27.40
2014,07,14,16,52,27.50
2014,07,14,16,53,27.50
2014,07,14,16,54,27.60
2014,07,14,16,55,27.50
2014,07,14,16,56,27.50
2014,07,14,16,57,27.40
2014,07,14,16,58,27.30
2014,07,14,16,59,27.30
2014,07,14,17,00,27.20
2014,07,14,17,01,27.20
2014,07,14,17,02,27.10
2014,07,14,17,03,27.10
2014,07,14,17,04,27.10
2014,07,14,17,05,27.10
2014,07,14,17,06,27.10
2014,07,14,17,07,27.10
2014,07,14,17,08,27.10
2014,07,14,17,09,27.00
2014,07,14,17,10,27.00
2014,07,14,17,11,26.90
2014,07,14,17,12,26.90
2014,07,14,17,13,26.90
2014,07,14,17,14,26.90
2014,07,14,17,15,26.80
2014,07,14,17,16,26.80
2014,07,14,17,17,26.80
2014,07,14,17,18,26.70
2014,07,14,17,19,26.70